Date String (YYYY-MM-DD hh:mm:ss) UTC,Instrument flags,absolute air pressure of the measurement (hPa),sample flow rate (lpm),inlet stack bypass flow (lpm),air temperature of the measurement (°C),ambient temperature measured by the external sensor (°C),aerosol sample conditioner tube jacket temperature (°C),OPC LED temperature (°C),internal box temperature (°C),relative humidity of the measurement (%),span deviation,mass concentration of particles derived from Lorenz-Mie calculation of OPC scattering (μg/m³),mass concentration of particles derived from Lorenz-Mie calculation of OPC scattering (μg/m³),mass concentration of particles derived from Lorenz-Mie calculation of OPC scattering (μg/m³)
DateTimeUTC,F1_M11,P_M11,Q1_M11,Q2_M11,T1_M11,T2_M11,T3_M11,T4_M11,T5_M11,U1_M11,ZSPAN_M11,X0_M11,X2_M11,X1_M11
2023-08-20 08:00:00,SystemResetWarning,0837.6,5.01,000.00,029.9,026.2,000.0,038.0,030.4,35.1,0000.0,0010.24,0005.37,0004.62
2023-08-20 08:01:00,SystemResetWarning,0837.6,4.98,000.00,030.1,026.5,000.0,038.0,030.5,34.5,0000.0,0009.74,0005.38,0004.62
2023-08-20 08:02:00,SystemResetWarning,0837.6,5.00,000.00,030.3,026.7,000.0,038.0,030.6,34.0,0000.0,0009.71,0005.39,0004.61
2023-08-20 08:03:00,SystemResetWarning,0837.6,5.01,000.00,030.4,026.9,000.0,038.1,030.6,33.6,0000.0,0009.71,0005.38,0004.61
2023-08-20 08:04:00,SystemResetWarning,0837.6,5.01,000.00,030.4,027.0,000.0,038.1,030.6,33.5,0000.0,0009.65,0005.33,0004.61
2023-08-20 08:05:00,SystemResetWarning,0837.6,4.99,000.00,030.5,027.2,000.0,038.2,030.7,33.3,0000.0,0009.56,0005.32,0004.61
2023-08-20 08:06:00,SystemResetWarning,0837.6,5.00,000.00,030.5,027.3,000.0,038.3,030.7,33.3,0000.0,0009.59,0005.36,0004.64
2023-08-20 08:07:00,SystemResetWarning,0837.6,5.00,000.00,030.5,027.4,000.0,038.3,030.7,33.3,0000.0,0009.34,0005.35,0004.64
2023-08-20 08:08:00,SystemResetWarning,0837.6,5.00,000.00,030.5,027.5,000.0,038.4,030.8,33.3,0000.0,0008.76,0005.33,0004.64
2023-08-20 08:09:00,SystemResetWarning,0837.6,4.99,000.00,030.5,026.7,000.0,038.3,030.7,33.2,0000.0,0008.66,0005.29,0004.63
2023-08-20 08:10:00,SystemResetWarning,0837.6,5.00,000.00,030.5,024.8,000.0,038.2,030.4,33.4,0000.0,0008.58,0005.29,0004.64
2023-08-20 08:11:00,SystemResetWarning,0837.6,5.00,000.00,030.4,024.0,000.0,038.1,030.2,33.4,0000.0,0008.57,0005.29,0004.63
2023-08-20 08:12:00,SystemResetWarning,0837.6,5.02,000.00,030.2,024.0,000.0,038.1,029.9,33.6,0000.0,0008.51,0005.26,0004.62
2023-08-20 08:13:00,SystemResetWarning,0837.5,5.01,000.00,030.0,024.4,000.0,038.1,029.9,33.9,0000.0,0008.56,0005.26,0004.62
2023-08-20 08:14:00,SystemResetWarning,0837.5,5.00,000.00,029.9,024.8,000.0,038.1,030.0,34.1,0000.0,0008.32,0005.17,0004.60
2023-08-20 08:15:00,SystemResetWarning,0837.5,5.00,000.00,029.8,025.3,000.0,038.1,030.1,34.1,0000.0,0008.20,0005.14,0004.59
2023-08-20 08:16:00,SystemResetWarning,0837.5,4.99,000.00,029.8,025.7,000.0,038.1,030.1,34.4,0000.0,0008.16,0005.10,0004.58
2023-08-20 08:17:00,SystemResetWarning,0837.6,4.99,000.00,029.7,026.0,000.0,038.1,030.2,34.6,0000.0,0008.02,0005.06,0004.56
2023-08-20 08:18:00,SystemResetWarning,0837.5,5.00,000.00,029.7,026.3,000.0,038.1,030.3,34.4,0000.0,0008.08,0005.05,0004.54
2023-08-20 08:19:00,SystemResetWarning,0837.6,5.00,000.00,029.7,026.5,000.0,038.1,030.3,34.2,0000.0,0008.14,0005.05,0004.53
2023-08-20 08:20:00,SystemResetWarning,0837.6,5.00,000.00,029.7,026.8,000.0,038.1,030.4,34.4,0000.0,0008.18,0005.06,0004.52
2023-08-20 08:21:00,SystemResetWarning,0837.6,5.01,000.00,029.7,026.9,000.0,038.1,030.4,34.6,0000.0,0008.21,0005.06,0004.52
2023-08-20 08:22:00,SystemResetWarning,0837.7,4.99,000.00,029.7,027.1,000.0,038.1,030.4,34.5,0000.0,0008.15,0005.04,0004.53
2023-08-20 08:23:00,SystemResetWarning,0837.6,4.99,000.00,029.7,027.2,000.0,038.1,030.5,34.8,0000.0,0008.10,0005.03,0004.54
2023-08-20 08:24:00,SystemResetWarning,0837.7,5.00,000.00,029.7,027.3,000.0,038.1,030.5,34.5,0000.0,0008.30,0005.05,0004.56
2023-08-20 08:25:00,SystemResetWarning,0837.7,5.00,000.00,029.7,027.4,000.0,038.1,030.6,34.6,0000.0,0008.64,0005.11,0004.58
2023-08-20 08:26:00,SystemResetWarning,0837.7,5.01,000.00,029.7,027.5,000.0,038.0,030.6,34.6,0000.0,0009.41,0005.19,0004.61
2023-08-20 08:27:00,SystemResetWarning,0837.7,4.99,000.00,029.7,026.9,000.0,038.0,030.5,34.6,0000.0,0009.85,0005.27,0004.63
2023-08-20 08:28:00,SystemResetWarning,0837.7,5.00,000.00,029.6,025.1,000.0,037.8,030.2,34.5,0000.0,0009.88,0005.29,0004.65
2023-08-20 08:29:00,SystemResetWarning,0837.7,5.00,000.00,029.5,024.1,000.0,037.7,030.0,34.8,0000.0,0009.80,0005.30,0004.67
2023-08-20 08:30:00,SystemResetWarning,0837.6,5.01,000.00,029.4,024.0,000.0,037.7,029.8,35.2,0000.0,0009.75,0005.30,0004.67
2023-08-20 08:31:00,SystemResetWarning,0837.7,5.01,000.00,029.4,024.3,000.0,037.7,029.8,34.8,0000.0,0009.73,0005.29,0004.68
2023-08-20 08:32:00,SystemResetWarning,0837.7,4.98,000.00,029.5,024.8,000.0,037.7,029.9,34.6,0000.0,0009.67,0005.28,0004.67
2023-08-20 08:33:00,SystemResetWarning,0837.7,5.02,000.00,029.5,025.2,000.0,037.7,030.0,34.3,0000.0,0009.73,0005.29,0004.65
2023-08-20 08:34:00,SystemResetWarning,0837.7,4.97,000.00,029.6,025.6,000.0,037.7,030.1,34.2,0000.0,0009.69,0005.27,0004.64
2023-08-20 08:35:00,SystemResetWarning,0837.7,5.01,000.00,029.6,025.9,000.0,037.7,030.2,34.1,0000.0,0009.37,0005.23,0004.61
2023-08-20 08:36:00,SystemResetWarning,0837.7,5.01,000.00,029.6,026.2,000.0,037.7,030.2,34.0,0000.0,0009.04,0005.17,0004.58
2023-08-20 08:37:00,SystemResetWarning,0837.7,4.99,000.00,029.6,026.5,000.0,037.8,030.3,34.1,0000.0,0008.36,0005.11,0004.55
2023-08-20 08:38:00,SystemResetWarning,0837.7,4.99,000.00,029.6,026.7,000.0,037.8,030.3,34.0,0000.0,0007.88,0005.04,0004.52
2023-08-20 08:39:00,SystemResetWarning,0837.8,4.99,000.00,029.6,026.8,000.0,037.8,030.3,34.0,0000.0,0007.88,0005.02,0004.49
2023-08-20 08:40:00,SystemResetWarning,0837.7,5.00,000.00,029.6,027.0,000.0,037.8,030.4,34.0,0000.0,0008.71,0005.02,0004.47
2023-08-20 08:41:00,SystemResetWarning,0837.7,5.00,000.00,029.6,027.1,000.0,037.9,030.4,34.0,0000.0,0008.86,0005.04,0004.46
2023-08-20 08:42:00,SystemResetWarning,0837.7,5.01,000.00,029.6,027.2,000.0,037.9,030.5,34.0,0000.0,0008.95,0005.03,0004.43
2023-08-20 08:43:00,SystemResetWarning,0837.7,5.00,000.00,029.6,027.3,000.0,037.9,030.5,34.0,0000.0,0009.02,0005.03,0004.43
2023-08-20 08:44:00,SystemResetWarning,0837.7,5.01,000.00,029.6,027.4,000.0,037.9,030.6,33.9,0000.0,0009.51,0005.05,0004.43
2023-08-20 08:45:00,SystemResetWarning,0837.8,5.00,000.00,029.6,027.4,000.0,037.9,030.6,33.8,0000.0,0009.94,0005.12,0004.42
2023-08-20 08:46:00,SystemResetWarning,0837.7,4.98,000.00,029.6,026.3,000.0,037.8,030.5,34.0,0000.0,0010.08,0005.15,0004.42
2023-08-20 08:47:00,SystemResetWarning,0837.7,5.00,000.00,029.6,024.6,000.0,037.7,030.2,34.3,0000.0,0010.19,0005.19,0004.42
2023-08-20 08:48:00,SystemResetWarning,0837.7,5.01,000.00,029.5,024.0,000.0,037.6,030.0,34.7,0000.0,0010.71,0005.21,0004.42
2023-08-20 08:49:00,SystemResetWarning,0837.6,4.99,000.00,029.3,024.1,000.0,037.6,029.7,35.1,0000.0,0011.03,0005.22,0004.42
2023-08-20 08:50:00,SystemResetWarning,0837.6,5.05,000.00,029.3,024.5,000.0,037.6,029.8,35.2,0000.0,0011.09,0005.23,0004.43
2023-08-20 08:51:00,SystemResetWarning,0837.7,4.95,000.00,029.4,024.9,000.0,037.6,030.0,34.6,0000.0,0010.47,0005.21,0004.42
2023-08-20 08:52:00,SystemResetWarning,0837.7,5.02,000.00,029.5,025.4,000.0,037.6,030.1,34.4,0000.0,0010.13,0005.17,0004.42
2023-08-20 08:53:00,SystemResetWarning,0837.7,4.99,000.00,029.6,025.7,000.0,037.6,030.1,34.8,0000.0,0010.42,0005.19,0004.42
2023-08-20 08:54:00,SystemResetWarning,0837.7,4.99,000.00,029.6,026.1,000.0,037.6,030.2,34.5,0000.0,0010.86,0005.20,0004.40
2023-08-20 08:55:00,SystemResetWarning,0837.7,4.99,000.00,029.7,026.4,000.0,037.7,030.2,34.2,0000.0,0010.78,0005.20,0004.40
2023-08-20 08:56:00,SystemResetWarning,0837.7,5.00,000.00,029.7,026.6,000.0,037.7,030.3,34.0,0000.0,0010.88,0005.21,0004.39
2023-08-20 08:57:00,SystemResetWarning,0837.7,5.01,000.00,029.7,026.8,000.0,037.8,030.3,33.8,0000.0,0012.22,0005.29,0004.39
2023-08-20 08:58:00,SystemResetWarning,0837.7,5.00,000.00,029.7,026.9,000.0,037.8,030.4,33.7,0000.0,0013.29,0005.44,0004.40
2023-08-20 08:59:00,SystemResetWarning,0837.7,4.99,000.00,029.7,027.1,000.0,037.8,030.4,33.6,0000.0,0013.88,0005.59,0004.41
